Torna al catalogo

STARLINK-34758

AttivoComunicazioniSSO
NORAD 64945·PAYLOAD·🇺🇸 United States

Lanciato Jul 26, 2025 da Vandenberg Space Force Base

Loading…

Prossimi Passaggi (prossime 24 ore)

TLE

AggiornatoSource: CelesTrak SupGP

Epoca: Sep 14, 2026, 20:54 UTC

1 64945C 25158P   26257.87131944  .00014849  00000+0  46104-3 0  2578
2 64945  97.2839 116.2929 0001650  98.5758 340.4596 15.33424018    15

Traccia STARLINK-34758 in tempo reale con AllMySat

Download on the App Store